Location: Rounton
(54.4000°N, 1.3500°W)
Time: 17:53:31
(UTC+00:00)

Vanguard 2 - Pass Details

Date: 30 November 2021
Orbit: 553 x 2936 km, 32.9° (Epoch: 21 January)

Event Time Altitude Azimuth Distance (km) Brightness Sun altitude
Rises 17:04:12 0° 237° (WSW) 3,903 13.1 -10.6°
Reaches altitude 10° 17:07:35 10° 219° (SW) 3,300 11.8 -11.1°
Maximum altitude 17:13:02 18° 179° (S) 3,231 10.9 -11.8°
Drops below altitude 10° 17:20:11 10° 142° (SE) 4,528 11.3 -12.8°
Sets 17:26:07 0° 127° (SE) 5,998 11.8 -13.6°
